This is the latest recevied weather packets stored in our database for station/object AD8IZ-13. If no packets are shown the sender has not sent any weather packets the latest 10 day(s).
| Time | Temp. | Humidity | Pressure | Rain* | Wind** | Luminosity | Snow |
|---|---|---|---|---|---|---|---|
| 1777962320 | 18.33° C | 68% | 1005.7 hPa | 0 mm | - | 0 W/m² | - |
| 1777961721 | 18.89° C | 67% | 1005.7 hPa | 0 mm | - | 0 W/m² | - |
| 1777961120 | 18.89° C | 67% | 1005.8 hPa | 0 mm | - | 0 W/m² | - |
| 1777960521 | 18.89° C | 67% | 1005.9 hPa | 0 mm | - | 0 W/m² | - |
| 1777959920 | 18.89° C | 67% | 1006 hPa | 0 mm | - | 0 W/m² | - |
| 1777959321 | 18.89° C | 66% | 1006 hPa | 0 mm | - | 0 W/m² | - |
| 1777958720 | 18.89° C | 67% | 1006.2 hPa | 0 mm | - | 0 W/m² | - |
| 1777958117 | 18.89° C | 67% | 1006.2 hPa | 0 mm | - | 0 W/m² | - |
| 1777957517 | 19.44° C | 67% | 1006.3 hPa | 0 mm | - | 0 W/m² | - |
| 1777956922 | 19.44° C | 66% | 1006.2 hPa | 0 mm | - | 0 W/m² | - |
| 1777956318 | 19.44° C | 66% | 1006.1 hPa | 0 mm | - | 0 W/m² | - |
| 1777955718 | 19.44° C | 67% | 1006.2 hPa | 0 mm | - | 0 W/m² | - |
| 1777955118 | 19.44° C | 67% | 1006.3 hPa | 0 mm | - | 0 W/m² | - |
| 1777954519 | 19.44° C | 67% | 1006.3 hPa | 0 mm | - | 0 W/m² | - |
| 1777953921 | 18.89° C | 68% | 1006.2 hPa | 0 mm | - | 0 W/m² | - |
| 1777953319 | 18.89° C | 68% | 1006.2 hPa | 0 mm | - | 0 W/m² | - |
| 1777952719 | 18.89° C | 69% | 1006.2 hPa | 0 mm | - | 0 W/m² | - |
| 1777952119 | 18.33° C | 70% | 1006.1 hPa | 0 mm | - | 0 W/m² | - |
| 1777951519 | 18.33° C | 71% | 1006.2 hPa | 0 mm | - | 0 W/m² | - |
| 1777950919 | 17.78° C | 73% | 1006.2 hPa | 0 mm | - | 0 W/m² | - |
| 1777950319 | 17.22° C | 75% | 1006.1 hPa | 0 mm | - | 0 W/m² | - |
| 1777949720 | 17.22° C | 76% | 1006.1 hPa | 0 mm | - | 0 W/m² | - |
| 1777949123 | 17.22° C | 77% | 1006.1 hPa | 0 mm | - | 0 W/m² | - |
| 1777948521 | 17.78° C | 76% | 1006.1 hPa | 0 mm | - | 0 W/m² | - |
| 1777947918 | 17.78° C | 75% | 1006.1 hPa | 0 mm | - | 0 W/m² | - |
* Rain latest hour (hover to see other rain measurements)
** Current wind speed in m/s (hover to see current wind gust speed)